Regional Weather Roundup
Issued by NWS Cleveland, OH

Home | Current Version | Previous Version | Text Only | Print | Product List | Glossary Off
Versions: 1 2 3 4 5 6 7 8 9 10 11 12 13 14 15 16 17 18 19 20 21 22 23 24 25 26 27 28 29 30 31 32 33 34 35 36 37 38 39 40 41 42 43 44 45 46 47 48 49 50

000
ASUS41 KCLE 261402
RWRCLE
OHIO REGIONAL WEATHER ROUNDUP
NATIONAL WEATHER SERVICE CLEVELAND, OH
900 AM EST MON JAN 26 2015

NOTE: "FAIR" INDICATES FEW OR NO CLOUDS BELOW 12,000 FEET WITH NO
SIGNIFICANT WEATHER AND/OR OBSTRUCTIONS TO VISIBILITY.

OHZ001>008-015>018-024>027-034-035-043-044-261500-
   NORTHWEST OHIO

CITY           SKY/WX    TMP DP  RH WIND       PRES   REMARKS
DEFIANCE       PTCLDY    11   5  77 N7        29.95R WCI   0
FINDLAY        CLOUDY    14   8  77 N12       29.88R WCI   0
TOLEDO EXPRESS MOCLDY    10   5  79 N7        29.94R WCI   0
TOLEDO EXEC    CLOUDY    14   6  70 NE9       29.94R WCI   2
LIMA           CLOUDY    15   7  70 N12       29.88R WCI   2
$$

OHZ009>014-019>023-028>033-038-089-261500-
   NORTHEAST OHIO

CITY           SKY/WX    TMP DP  RH WIND       PRES   REMARKS
CLE-HOPKINS    LGT SNOW  21  17  84 N13       29.86R FOG     WCI   9
CLE-LAKEFRONT  CLOUDY    21  17  84 NE13      29.84R FOG     WCI   9
CUY CO. ARPT   LGT SNOW  21  18  86 NE14      29.83R WCI   8
LORAIN-ELYRIA  CLOUDY    19  16  88 NE14      29.85R WCI   6
ASHTABULA      CLOUDY    18  13  80 NE8       29.82S WCI   8
AKRON-CANTON   LGT SNOW  20  15  81 N12       29.76R VSB 1   WCI   8
WOOSTER        LGT SNOW  19  16  88 N13       29.78S VSB 1   WCI   6
MANSFIELD      LGT SNOW  17  14  88 N13       29.79R FOG     WCI   4
YOUNGSTOWN     LGT SNOW  18  15  88 N9        29.76S VSB 1   WCI   7
$$

OHZ042-051>053-060>062-070>072-077>081-261500-
  SOUTHWEST OHIO

CITY           SKY/WX    TMP DP  RH WIND       PRES   REMARKS
CINC-COVINGTON PTSUNNY   21  16  81 NW12      29.87R WCI   9
CINC-LUNKEN    CLOUDY    21  16  81 N12       29.91R WCI   9
HAMILTON       CLOUDY    21  15  78 NW8       29.91R WCI  11
DAYTON         PTSUNNY   18  12  77 N15       29.87R WCI   4
WRIGHT-PAT AFB NOT AVBL
DAYTON GENERAL PTSUNNY   18  13  80 N10       29.85R WCI   6
WILMINGTON     CLOUDY    18  14  84 NW15      29.82R WCI   4
$$

OHZ036-037-039>041-045>050-054>059-063>069-073>076-082>088-261500-
  CENTRAL AND SOUTHEAST OHIO

CITY           SKY/WX    TMP DP  RH WIND       PRES   REMARKS
COLUMBUS       LGT SNOW  20  16  84 N13       29.80R WCI   7
OSU AIRPORT    PTSUNNY   18  14  84 N15       29.80R WCI   4
BOLTON FIELD   CLOUDY    19  16  86 N14       29.81R WCI   6
RICKENBACK AFB NOT AVBL
NEWARK         LGT SNOW  23  18  81 N9        29.78R WCI  13
MARION         PTSUNNY   17  13  84 N14       29.84R WCI   3
LANCASTER      LGT SNOW  24  21  88 N9        29.78R FOG     WCI  14
ZANESVILLE     SNOW      21  18  88 N9        29.75R VSB 1/2 WCI  11
NEW PHILLY     LGT SNOW  22  18  85 NW6       29.77R VSB 1   WCI  14
$$



USA.gov is the U.S. government's official web portal to all federal, state and local government web resources and services.